| time (UTC) | temp F | wind direction | speed MPH | gust MPH | rain 1hr in | rain 24hr in | rain mn in | humidity % | barometer mb |
| 20260503054854 | 40 | 34 | 0.0 | 0.0 | 0.00 | 0.00 | 0.00 | 99 | 3412.9 |
| 20260503054350 | 40 | 34 | 0.0 | 0.0 | 0.00 | 0.00 | 0.00 | 99 | 3413.0 |
| 20260503053849 | 40 | 34 | 0.0 | 0.0 | 0.00 | 0.00 | 0.00 | 99 | 3412.9 |
| 20260503053347 | 40 | 34 | 0.0 | 0.0 | 0.00 | 0.00 | 0.00 | 99 | 3412.9 |
| 20260503052842 | 40 | 34 | 0.0 | 0.0 | 0.00 | 0.00 | 0.00 | 99 | 3412.9 |
| 20260503052340 | 40 | 34 | 0.0 | 0.0 | 0.00 | 0.00 | 0.00 | 99 | 3412.9 |
| 20260503051836 | 41 | 34 | 0.0 | 0.0 | 0.00 | 0.00 | 0.00 | 99 | 3412.8 |
| 20260503051332 | 41 | 34 | 0.0 | 0.0 | 0.00 | 0.00 | 0.00 | 99 | 3412.7 |
| 20260503050829 | 41 | 34 | 0.0 | 0.0 | 0.00 | 0.00 | 0.00 | 99 | 3412.7 |
| 20260503050325 | 41 | 34 | 0.0 | 0.0 | 0.00 | 0.00 | 0.00 | 99 | 3412.9 |
| 20260503045823 | 41 | 34 | 0.0 | 0.0 | 0.00 | 0.08 | 0.08 | 99 | 3412.8 |
| 20260503045321 | 41 | 34 | 0.0 | 0.0 | 0.00 | 0.08 | 0.08 | 99 | 3412.7 |
| 20260503044817 | 42 | 34 | 0.0 | 0.0 | 0.00 | 0.08 | 0.08 | 99 | 3412.6 |
| 20260503044314 | 42 | 34 | 0.0 | 0.0 | 0.00 | 0.08 | 0.08 | 99 | 3412.7 |
| 20260503043811 | 42 | 34 | 0.0 | 0.0 | 0.00 | 0.08 | 0.08 | 99 | 3412.9 |
| 20260503043308 | 42 | 34 | 0.0 | 0.0 | 0.00 | 0.08 | 0.08 | 99 | 3412.5 |
| 20260503042804 | 42 | 34 | 0.0 | 0.0 | 0.00 | 0.08 | 0.08 | 99 | 3412.8 |
| 20260503042301 | 42 | 34 | 0.0 | 0.0 | 0.00 | 0.08 | 0.08 | 99 | 3412.6 |
| 20260503041756 | 43 | 34 | 0.0 | 0.0 | 0.00 | 0.08 | 0.08 | 99 | 3412.7 |
| 20260503041255 | 43 | 34 | 0.0 | 0.0 | 0.00 | 0.08 | 0.08 | 99 | 3412.7 |
| 20260503040752 | 43 | 34 | 0.0 | 0.0 | 0.00 | 0.08 | 0.08 | 99 | 3412.5 |
| 20260503040249 | 43 | 34 | 0.0 | 0.0 | 0.00 | 0.08 | 0.08 | 99 | 3412.6 |
| 20260503035746 | 43 | 34 | 0.0 | 0.0 | 0.00 | 0.08 | 0.08 | 99 | 3412.4 |
| 20260503035243 | 43 | 34 | 0.0 | 0.0 | 0.00 | 0.08 | 0.08 | 99 | 3412.5 |
| 20260503034741 | 43 | 34 | 0.0 | 0.0 | 0.00 | 0.08 | 0.08 | 99 | 3412.5 |
| 20260503034238 | 43 | 34 | 0.0 | 0.0 | 0.00 | 0.08 | 0.08 | 99 | 3412.5 |
| 20260503033735 | 43 | 34 | 0.0 | 0.0 | 0.00 | 0.08 | 0.08 | 99 | 3412.4 |
| 20260503033232 | 44 | 34 | 0.0 | 0.0 | 0.00 | 0.08 | 0.08 | 99 | 3412.6 |
| 20260503032731 | 44 | 34 | 0.0 | 0.0 | 0.00 | 0.08 | 0.08 | 99 | 3412.6 |
| 20260503032229 | 44 | 34 | 0.0 | 0.0 | 0.00 | 0.08 | 0.08 | 99 | 3412.4 |
| 20260503031725 | 44 | 34 | 0.0 | 0.0 | 0.00 | 0.08 | 0.08 | 99 | 3412.4 |
| 20260503031224 | 44 | 34 | 0.0 | 0.0 | 0.00 | 0.08 | 0.08 | 99 | 3412.3 |
| 20260503030720 | 44 | 34 | 0.0 | 0.0 | 0.00 | 0.08 | 0.08 | 99 | 3412.3 |
| 20260503030216 | 44 | 34 | 0.0 | 0.0 | 0.00 | 0.08 | 0.08 | 99 | 3412.3 |
| 20260503025713 | 45 | 34 | 0.0 | 0.0 | 0.00 | 0.08 | 0.08 | 99 | 3412.3 |
| 20260503025206 | 45 | 34 | 0.0 | 0.0 | 0.00 | 0.08 | 0.08 | 99 | 3412.2 |
| 20260503024702 | 45 | 34 | 0.0 | 0.0 | 0.00 | 0.08 | 0.08 | 99 | 3412.2 |
| 20260503024159 | 46 | 34 | 0.0 | 0.0 | 0.00 | 0.08 | 0.08 | 99 | 3412.3 |
| 20260503023656 | 46 | 34 | 0.0 | 0.0 | 0.00 | 0.08 | 0.08 | 99 | 3412.2 |
| 20260503023152 | 46 | 34 | 0.0 | 0.0 | 0.00 | 0.08 | 0.08 | 99 | 3412.2 |
| 20260503022649 | 46 | 34 | 0.0 | 0.0 | 0.00 | 0.08 | 0.08 | 99 | 3411.9 |
| 20260503022148 | 46 | 34 | 0.0 | 0.0 | 0.00 | 0.08 | 0.08 | 99 | 3412.2 |
| 20260503021645 | 46 | 34 | 0.0 | 0.0 | 0.00 | 0.08 | 0.08 | 99 | 3412.1 |
| 20260503021142 | 47 | 34 | 0.0 | 0.0 | 0.00 | 0.08 | 0.08 | 99 | 3411.9 |
| 20260503020639 | 47 | 34 | 0.0 | 0.0 | 0.00 | 0.08 | 0.08 | 99 | 3411.9 |
| 20260503020137 | 47 | 34 | 0.0 | 0.0 | 0.00 | 0.08 | 0.08 | 99 | 3411.7 |
| 20260503015633 | 48 | 34 | 0.0 | 0.0 | 0.00 | 0.08 | 0.08 | 99 | 3411.7 |
| 20260503015130 | 48 | 34 | 0.0 | 0.0 | 0.00 | 0.08 | 0.08 | 99 | 3411.7 |
| 20260503014626 | 48 | 34 | 0.0 | 0.0 | 0.00 | 0.08 | 0.08 | 99 | 3411.6 |
| 20260503014124 | 48 | 34 | 0.0 | 0.0 | 0.00 | 0.08 | 0.08 | 99 | 3411.7 |
| 20260503013621 | 48 | 34 | 0.0 | 0.0 | 0.00 | 0.08 | 0.08 | 98 | 3411.7 |
| 20260503013119 | 48 | 34 | 0.0 | 0.0 | 0.00 | 0.08 | 0.08 | 98 | 3411.7 |
| 20260503012616 | 48 | 34 | 0.0 | 0.0 | 0.00 | 0.08 | 0.08 | 98 | 3411.4 |
| 20260503012113 | 47 | 34 | 0.0 | 0.0 | 0.00 | 0.08 | 0.08 | 98 | 3411.5 |
| 20260503011610 | 48 | 34 | 0.0 | 0.0 | 0.00 | 0.08 | 0.08 | 98 | 3411.3 |
| 20260503011107 | 48 | 34 | 0.0 | 0.0 | 0.00 | 0.08 | 0.08 | 97 | 3411.3 |
| 20260503010603 | 48 | 34 | 0.0 | 0.0 | 0.00 | 0.08 | 0.08 | 97 | 3411.0 |
| 20260503010100 | 48 | 34 | 0.0 | 0.0 | 0.00 | 0.08 | 0.08 | 97 | 3411.3 |
| 20260503005557 | 48 | 34 | 0.0 | 0.0 | 0.00 | 0.08 | 0.08 | 97 | 3411.0 |
| 20260503005055 | 48 | 34 | 0.0 | 0.0 | 0.00 | 0.08 | 0.08 | 96 | 3411.1 |
| 20260503004550 | 49 | 34 | 0.0 | 0.0 | 0.00 | 0.08 | 0.08 | 96 | 3411.1 |
| 20260503004049 | 49 | 34 | 0.0 | 0.0 | 0.00 | 0.08 | 0.08 | 95 | 3411.1 |
| 20260503003545 | 49 | 34 | 1.0 | 2.0 | 0.00 | 0.08 | 0.08 | 95 | 3410.9 |
| 20260503003042 | 49 | 34 | 0.0 | 0.0 | 0.00 | 0.08 | 0.08 | 94 | 3410.9 |
| 20260503002539 | 50 | 34 | 0.0 | 0.0 | 0.00 | 0.08 | 0.08 | 93 | 3411.0 |
| 20260503002036 | 50 | 34 | 0.0 | 0.0 | 0.00 | 0.08 | 0.08 | 92 | 3411.0 |
| 20260503001532 | 50 | 34 | 0.0 | 0.0 | 0.00 | 0.08 | 0.08 | 92 | 3410.9 |
| 20260503001031 | 50 | 34 | 0.0 | 0.0 | 0.00 | 0.08 | 0.08 | 90 | 3410.5 |
| 20260503000527 | 51 | 34 | 0.0 | 0.0 | 0.00 | 0.08 | 0.08 | 88 | 3410.7 |
| 20260503000024 | 51 | 34 | 0.0 | 0.0 | 0.00 | 0.08 | 0.08 | 86 | 3410.8 |
| 20260502235520 | 51 | 31 | 0.0 | 0.0 | 0.00 | 0.08 | 0.08 | 83 | 3410.7 |
| 20260502235019 | 51 | 208 | 0.0 | 2.0 | 0.00 | 0.08 | 0.08 | 85 | 3410.9 |
| 20260502234514 | 51 | 208 | 0.0 | 0.0 | 0.00 | 0.08 | 0.08 | 83 | 3410.5 |
| 20260502234012 | 51 | 241 | 2.0 | 3.0 | 0.00 | 0.08 | 0.08 | 85 | 3410.3 |
| 20260502233512 | 51 | 49 | 0.0 | 2.0 | 0.00 | 0.08 | 0.08 | 89 | 3410.5 |
| 20260502233010 | 51 | 353 | 1.0 | 2.0 | 0.00 | 0.08 | 0.08 | 92 | 3410.5 |
| 20260502232506 | 50 | 51 | 0.0 | 0.0 | 0.00 | 0.08 | 0.08 | 94 | 3410.6 |
| 20260502232003 | 50 | 50 | 0.0 | 2.0 | 0.00 | 0.08 | 0.08 | 96 | 3410.6 |
| 20260502231500 | 50 | 89 | 0.0 | 0.0 | 0.00 | 0.08 | 0.08 | 97 | 3410.5 |
| 20260502230958 | 50 | 176 | 0.0 | 2.0 | 0.00 | 0.08 | 0.08 | 98 | 3410.5 |
| 20260502230456 | 50 | 148 | 1.0 | 2.0 | 0.00 | 0.08 | 0.08 | 99 | 3410.4 |
| 20260502225954 | 50 | 46 | 0.0 | 0.0 | 0.00 | 0.08 | 0.08 | 99 | 3410.7 |
| 20260502225450 | 50 | 39 | 0.0 | 0.0 | 0.00 | 0.08 | 0.08 | 99 | 3410.4 |
| 20260502224947 | 50 | 38 | 0.0 | 0.0 | 0.00 | 0.08 | 0.08 | 99 | 3410.3 |
| 20260502224443 | 51 | 44 | 0.0 | 0.0 | 0.00 | 0.08 | 0.08 | 99 | 3410.4 |
| 20260502223940 | 51 | 44 | 0.0 | 0.0 | 0.00 | 0.08 | 0.08 | 99 | 3410.4 |
| 20260502223438 | 51 | 55 | 0.0 | 0.0 | 0.00 | 0.08 | 0.08 | 99 | 3410.5 |
| 20260502222936 | 51 | 57 | 0.0 | 0.0 | 0.00 | 0.08 | 0.08 | 99 | 3410.4 |
| 20260502222433 | 51 | 56 | 0.0 | 0.0 | 0.00 | 0.08 | 0.08 | 99 | 3410.5 |
| 20260502221928 | 51 | 44 | 0.0 | 0.0 | 0.00 | 0.08 | 0.08 | 99 | 3410.5 |
| 20260502221425 | 51 | 44 | 0.0 | 0.0 | 0.00 | 0.08 | 0.08 | 99 | 3410.3 |
| 20260502220922 | 51 | 44 | 0.0 | 0.0 | 0.00 | 0.08 | 0.08 | 99 | 3410.5 |
| 20260502220418 | 51 | 44 | 0.0 | 0.0 | 0.00 | 0.08 | 0.08 | 99 | 3410.4 |
| 20260502215914 | 51 | 44 | 0.0 | 0.0 | 0.00 | 0.08 | 0.08 | 99 | 3410.5 |
| 20260502215412 | 51 | 44 | 0.0 | 0.0 | 0.00 | 0.08 | 0.08 | 99 | 3410.3 |
| 20260502214909 | 51 | 44 | 0.0 | 0.0 | 0.00 | 0.08 | 0.08 | 98 | 3410.3 |
| 20260502214405 | 50 | 44 | 0.0 | 0.0 | 0.00 | 0.08 | 0.08 | 98 | 3410.3 |
| 20260502213903 | 50 | 43 | 0.0 | 0.0 | 0.00 | 0.08 | 0.08 | 98 | 3410.4 |
| 20260502213359 | 51 | 57 | 0.0 | 2.0 | 0.00 | 0.08 | 0.08 | 98 | 3410.0 |
| 20260502212859 | 51 | 71 | 0.0 | 0.0 | 0.07 | 0.08 | 0.08 | 98 | 3410.4 |
| 20260502212356 | 51 | 59 | 0.0 | 0.0 | 0.07 | 0.08 | 0.08 | 98 | 3410.3 |
| 20260502211853 | 51 | 20 | 2.0 | 2.0 | 0.00 | 0.07 | 0.07 | 98 | 3410.2 |
| 20260502211349 | 51 | 53 | 0.0 | 0.0 | 0.05 | 0.07 | 0.07 | 98 | 3410.2 |
| 20260502210847 | 51 | 48 | 0.0 | 0.0 | 0.05 | 0.07 | 0.07 | 98 | 3410.5 |
| 20260502210344 | 51 | 30 | 0.0 | 0.0 | 0.00 | 0.06 | 0.06 | 97 | 3410.2 |
| 20260502205841 | 51 | 50 | 0.0 | 2.0 | 0.00 | 0.06 | 0.06 | 97 | 3410.3 |
| 20260502205337 | 51 | 54 | 0.0 | 0.0 | 0.00 | 0.06 | 0.06 | 96 | 3410.3 |
| 20260502204834 | 51 | 54 | 0.0 | 0.0 | 0.00 | 0.06 | 0.06 | 96 | 3410.1 |
| 20260502204331 | 51 | 54 | 0.0 | 0.0 | 0.00 | 0.06 | 0.06 | 95 | 3410.2 |
| 20260502203829 | 50 | 60 | 0.0 | 0.0 | 0.12 | 0.06 | 0.06 | 93 | 3410.2 |
| 20260502203326 | 50 | 58 | 0.0 | 0.0 | 0.19 | 0.06 | 0.06 | 92 | 3410.2 |
| 20260502202826 | 51 | 354 | 2.0 | 3.0 | 0.12 | 0.04 | 0.04 | 91 | 3410.2 |
| 20260502202324 | 52 | 58 | 0.0 | 0.0 | 0.12 | 0.03 | 0.03 | 89 | 3410.0 |
| 20260502201822 | 52 | 334 | 2.0 | 3.0 | 0.07 | 0.02 | 0.02 | 86 | 3410.2 |
| 20260502201318 | 53 | 199 | 2.0 | 3.0 | 0.12 | 0.02 | 0.02 | 82 | 3410.2 |
| 20260502200814 | 54 | 105 | 0.0 | 2.0 | 0.05 | 0.01 | 0.01 | 79 | 3410.1 |
| 20260502200310 | 55 | 82 | 0.0 | 0.0 | 0.00 | 0.00 | 0.00 | 75 | 3410.1 |
| 20260502195808 | 55 | 98 | 0.0 | 0.0 | 0.00 | 0.00 | 0.00 | 72 | 3410.1 |
| 20260502195305 | 55 | 117 | 2.0 | 3.0 | 0.00 | 0.00 | 0.00 | 71 | 3409.9 |
| 20260502194801 | 56 | 126 | 1.0 | 2.0 | 0.00 | 0.00 | 0.00 | 70 | 3410.0 |
| 20260502194259 | 56 | 175 | 3.0 | 5.0 | 0.00 | 0.00 | 0.00 | 68 | 3409.8 |
| 20260502193754 | 56 | 135 | 0.0 | 0.0 | 0.00 | 0.00 | 0.00 | 69 | 3409.6 |
| 20260502193252 | 57 | 140 | 1.0 | 3.0 | 0.00 | 0.00 | 0.00 | 68 | 3409.8 |
| 20260502192751 | 58 | 74 | 0.0 | 2.0 | 0.00 | 0.00 | 0.00 | 67 | 3409.5 |
| 20260502192249 | 58 | 60 | 0.0 | 0.0 | 0.00 | 0.00 | 0.00 | 65 | 3409.5 |
| 20260502191745 | 59 | 84 | 0.0 | 2.0 | 0.00 | 0.00 | 0.00 | 65 | 3409.7 |
| 20260502191244 | 59 | 113 | 0.0 | 0.0 | 0.00 | 0.00 | 0.00 | 66 | 3409.6 |
| 20260502190741 | 59 | 109 | 0.0 | 0.0 | 0.00 | 0.00 | 0.00 | 65 | 3409.6 |
| 20260502190239 | 60 | 60 | 1.0 | 2.0 | 0.00 | 0.00 | 0.00 | 61 | 3409.6 |
| 20260502185738 | 61 | 152 | 1.0 | 3.0 | 0.00 | 0.00 | 0.00 | 62 | 3409.8 |
| 20260502185235 | 61 | 91 | 1.0 | 2.0 | 0.00 | 0.00 | 0.00 | 62 | 3409.6 |
| 20260502184731 | 61 | 66 | 1.0 | 2.0 | 0.00 | 0.00 | 0.00 | 65 | 3409.6 |
| 20260502184227 | 59 | 115 | 1.0 | 2.0 | 0.00 | 0.00 | 0.00 | 66 | 3409.6 |
| 20260502183724 | 58 | 139 | 3.0 | 3.0 | 0.00 | 0.00 | 0.00 | 68 | 3409.6 |
| 20260502183220 | 58 | 14 | 0.0 | 0.0 | 0.00 | 0.00 | 0.00 | 65 | 3409.9 |
| 20260502182716 | 59 | 161 | 2.0 | 3.0 | 0.00 | 0.00 | 0.00 | 63 | 3409.8 |
| 20260502182211 | 60 | 68 | 1.0 | 2.0 | 0.00 | 0.00 | 0.00 | 61 | 3409.7 |
| 20260502181709 | 61 | 335 | 1.0 | 2.0 | 0.00 | 0.00 | 0.00 | 57 | 3409.5 |
| 20260502181208 | 62 | 270 | 1.0 | 2.0 | 0.00 | 0.00 | 0.00 | 57 | 3409.6 |
| 20260502180704 | 63 | 59 | 0.0 | 0.0 | 0.00 | 0.00 | 0.00 | 57 | 3409.6 |
| 20260502180202 | 62 | 337 | 2.0 | 3.0 | 0.00 | 0.00 | 0.00 | 63 | 3409.6 |
| 20260502170120 | 60 | 136 | 0.0 | 0.0 | 0.00 | 0.00 | 0.00 | 62 | 3410.5 |
| 20260502164107 | 61 | 354 | 2.0 | 3.0 | 0.00 | 0.00 | 0.00 | 56 | 3410.4 |
| 20260502163603 | 60 | 114 | 0.0 | 0.0 | 0.00 | 0.00 | 0.00 | 61 | 3410.6 |
| 20260502163100 | 60 | 3 | 3.0 | 3.0 | 0.00 | 0.00 | 0.00 | 58 | 3410.7 |
| 20260502162556 | 60 | 276 | 3.0 | 7.0 | 0.00 | 0.00 | 0.00 | 58 | 3410.6 |
| 20260502162053 | 60 | 337 | 0.0 | 2.0 | 0.00 | 0.00 | 0.00 | 58 | 3410.6 |
| 20260502161550 | 60 | 114 | 0.0 | 2.0 | 0.00 | 0.00 | 0.00 | 63 | 3410.7 |
| 20260502161048 | 60 | 26 | 3.0 | 5.0 | 0.00 | 0.00 | 0.00 | 59 | 3410.5 |
| 20260502160546 | 59 | 127 | 2.0 | 3.0 | 0.00 | 0.00 | 0.00 | 60 | 3410.9 |
| 20260502151959 | 57 | 59 | 0.0 | 2.0 | 0.00 | 0.00 | 0.00 | 74 | 3410.9 |
| 20260502151455 | 56 | 13 | 1.0 | 2.0 | 0.00 | 0.00 | 0.00 | 72 | 3410.9 |
| 20260502150952 | 56 | 111 | 0.0 | 0.0 | 0.00 | 0.00 | 0.00 | 74 | 3410.7 |
| 20260502150450 | 56 | 117 | 1.0 | 2.0 | 0.00 | 0.00 | 0.00 | 76 | 3410.7 |
| 20260502130336 | 45 | 265 | 0.0 | 0.0 | 0.00 | 0.00 | 0.00 | 99 | 3410.3 |
| 20260502123318 | 42 | 265 | 0.0 | 0.0 | 0.00 | 0.00 | 0.00 | 99 | 3410.2 |
| 20260502122815 | 42 | 265 | 0.0 | 0.0 | 0.00 | 0.00 | 0.00 | 99 | 3410.4 |
| 20260502122310 | 42 | 265 | 0.0 | 0.0 | 0.00 | 0.00 | 0.00 | 99 | 3410.3 |
| 20260502121809 | 41 | 265 | 0.0 | 0.0 | 0.00 | 0.00 | 0.00 | 99 | 3410.2 |
| 20260502121306 | 41 | 265 | 0.0 | 0.0 | 0.00 | 0.00 | 0.00 | 99 | 3410.2 |
| 20260502120803 | 41 | 265 | 0.0 | 0.0 | 0.00 | 0.00 | 0.00 | 99 | 3410.4 |
| 20260502120300 | 41 | 265 | 0.0 | 0.0 | 0.00 | 0.00 | 0.00 | 99 | 3410.1 |
| 20260502115757 | 41 | 265 | 0.0 | 0.0 | 0.00 | 0.00 | 0.00 | 99 | 3410.0 |
| 20260502115248 | 41 | 265 | 0.0 | 0.0 | 0.00 | 0.00 | 0.00 | 99 | 3410.1 |
| 20260502114744 | 41 | 265 | 0.0 | 0.0 | 0.00 | 0.00 | 0.00 | 99 | 3410.0 |
| 20260502114241 | 41 | 265 | 0.0 | 0.0 | 0.00 | 0.00 | 0.00 | 99 | 3410.0 |
| 20260502113738 | 40 | 265 | 0.0 | 0.0 | 0.00 | 0.00 | 0.00 | 99 | 3410.0 |
| 20260502113236 | 40 | 265 | 0.0 | 0.0 | 0.00 | 0.00 | 0.00 | 99 | 3409.7 |
| 20260502112734 | 40 | 265 | 0.0 | 0.0 | 0.00 | 0.00 | 0.00 | 99 | 3409.8 |
| 20260502112231 | 40 | 265 | 0.0 | 0.0 | 0.00 | 0.00 | 0.00 | 99 | 3409.6 |
| 20260502111728 | 39 | 265 | 0.0 | 0.0 | 0.00 | 0.00 | 0.00 | 99 | 3409.6 |
| 20260502111225 | 39 | 265 | 0.0 | 0.0 | 0.00 | 0.00 | 0.00 | 99 | 3409.5 |
| 20260502110723 | 39 | 265 | 0.0 | 0.0 | 0.00 | 0.00 | 0.00 | 99 | 3409.4 |
| 20260502110221 | 39 | 265 | 0.0 | 0.0 | 0.00 | 0.00 | 0.00 | 99 | 3409.6 |
| 20260502105719 | 39 | 265 | 0.0 | 0.0 | 0.00 | 0.00 | 0.00 | 99 | 3409.4 |
| 20260502105215 | 40 | 265 | 0.0 | 0.0 | 0.00 | 0.00 | 0.00 | 99 | 3409.4 |
| 20260502104712 | 40 | 265 | 0.0 | 0.0 | 0.00 | 0.00 | 0.00 | 99 | 3409.3 |
| 20260502104210 | 40 | 265 | 0.0 | 0.0 | 0.00 | 0.00 | 0.00 | 99 | 3409.3 |
| 20260502103707 | 40 | 265 | 0.0 | 0.0 | 0.00 | 0.00 | 0.00 | 99 | 3409.5 |
| 20260502103205 | 40 | 265 | 0.0 | 0.0 | 0.00 | 0.00 | 0.00 | 99 | 3409.3 |
| 20260502102702 | 40 | 265 | 0.0 | 0.0 | 0.00 | 0.00 | 0.00 | 99 | 3409.1 |
| 20260502102158 | 40 | 265 | 0.0 | 0.0 | 0.00 | 0.00 | 0.00 | 99 | 3409.2 |
| 20260502101656 | 41 | 265 | 0.0 | 0.0 | 0.00 | 0.00 | 0.00 | 99 | 3409.2 |
| 20260502101154 | 41 | 265 | 0.0 | 0.0 | 0.00 | 0.00 | 0.00 | 99 | 3409.3 |
| 20260502100653 | 41 | 265 | 0.0 | 0.0 | 0.00 | 0.00 | 0.00 | 99 | 3409.4 |
| 20260502100150 | 41 | 265 | 0.0 | 0.0 | 0.00 | 0.00 | 0.00 | 99 | 3409.3 |
| 20260502091124 | 39 | 265 | 0.0 | 0.0 | 0.00 | 0.00 | 0.00 | 99 | 3409.1 |
| 20260502090621 | 39 | 265 | 0.0 | 0.0 | 0.00 | 0.00 | 0.00 | 99 | 3409.2 |
| 20260502090118 | 40 | 265 | 0.0 | 0.0 | 0.00 | 0.00 | 0.00 | 99 | 3409.1 |
| 20260502071516 | 41 | 265 | 0.0 | 0.0 | 0.00 | 0.00 | 0.00 | 98 | 3409.3 |
| 20260502071014 | 41 | 265 | 0.0 | 0.0 | 0.00 | 0.00 | 0.00 | 98 | 3409.6 |
| 20260502070511 | 41 | 265 | 0.0 | 0.0 | 0.00 | 0.00 | 0.00 | 98 | 3409.5 |
| 20260502070010 | 41 | 265 | 0.0 | 0.0 | 0.00 | 0.00 | 0.00 | 98 | 3409.8 |
| 20260502065508 | 41 | 265 | 0.0 | 0.0 | 0.00 | 0.00 | 0.00 | 98 | 3409.6 |
| 20260502065005 | 41 | 265 | 0.0 | 0.0 | 0.00 | 0.00 | 0.00 | 98 | 3409.7 |